WetterOnline ( https://www.wetteronline.de )

Wetter aktuell Vogtsburg

Aktuelles Wetter: Freiburg/Flugplatz (236m)

6-stündlich | Neueste Meldungen
Ortszeit Temperatur Wetter
Mo, 06.02. 7:00 -0.1° C bewölkt
Mo, 06.02. 1:00 3.8° C leichter Regen
So, 05.02. 19:00 4.2° C Sprühregen
So, 05.02. 13:00 4.0° C Sprühregen
So, 05.02. 7:00 0.1° C bedeckt
So, 05.02. 1:00 0.1° C Nebel
Sa, 04.02. 19:00 3.5° C wolkenlos
Sa, 04.02. 13:00 8.0° C bewölkt
Ortszeit Temperatur Wetter
Mo, 06.02. 10:30 2.7° C Nebel
Mo, 06.02. 10:20 2.7° C wolkig
Mo, 06.02. 10:10 1.7° C Dunst
Mo, 06.02. 10:00 1.3° C bewölkt
Mo, 06.02. 9:50 1.3° C Dunst
Mo, 06.02. 9:40 1.2° C Dunst
Mo, 06.02. 9:30 1.3° C bedeckt
Mo, 06.02. 9:00 1.3° C bedeckt
Mo, 06.02. 8:30 1.2° C bedeckt
Mo, 06.02. 8:00 0.8° C bedeckt
Mo, 06.02. 7:30 0.4° C bedeckt
Ortszeit Relative Feuchte Sichtweite
Mo, 06.02. 7:00 98% 3.5 km
Mo, 06.02. 1:00 95% 4.7 km
So, 05.02. 19:00 95% 9 km
So, 05.02. 13:00 93% 14 km
So, 05.02. 7:00 97% 13 km
So, 05.02. 1:00 97% 2.1 km
Sa, 04.02. 19:00 94% 23 km
Sa, 04.02. 13:00 84% 50 km
Ortszeit Relative Feuchte Sichtweite
Mo, 06.02. 10:30 96% 11 km
Mo, 06.02. 10:20 96% -
Mo, 06.02. 10:10 98% -
Mo, 06.02. 10:00 97% 1.2 km
Mo, 06.02. 9:50 97% -
Mo, 06.02. 9:40 96% -
Mo, 06.02. 9:30 99% 3.2 km
Mo, 06.02. 9:00 98% 4.0 km
Mo, 06.02. 8:30 97% 4.7 km
Mo, 06.02. 8:00 99% 5.0 km
Mo, 06.02. 7:30 98% 3.3 km
Ortszeit Niederschlagsmenge Niederschlagsart
Mo, 06.02. 7:00 0.9 l/m2 in 12 Std. Regen
Mo, 06.02. 1:00 0.9 l/m2 in 6 Std. Regen
So, 05.02. 19:00 5 l/m2 in 12 Std. Regen
So, 05.02. 13:00 1 l/m2 in 6 Std. Regen
So, 05.02. 7:00 0.0 l/m2 in 12 Std. -
So, 05.02. 1:00 0.0 l/m2 in 6 Std. -
Sa, 04.02. 19:00 2 l/m2 in 12 Std. -
Sa, 04.02. 13:00 2 l/m2 in 6 Std. Regen
Ortszeit Niederschlagsmenge Niederschlagsart
Mo, 06.02. 10:30 0.0 l/m2 in 30 Min -
Mo, 06.02. 10:20 keine Meldung -
Mo, 06.02. 10:10 keine Meldung -
Mo, 06.02. 10:00 0.0 l/m2 in 1 Std. -
Mo, 06.02. 9:50 keine Meldung -
Mo, 06.02. 9:40 keine Meldung -
Mo, 06.02. 9:30 0.0 l/m2 in 30 Min -
Mo, 06.02. 9:00 0.0 l/m2 in 1 Std. -
Mo, 06.02. 8:30 0.0 l/m2 in 30 Min -
Mo, 06.02. 8:00 0.0 l/m2 in 1 Std. -
Mo, 06.02. 7:30 0.0 l/m2 in 30 Min -
Ortszeit Stärke Spitze Richtung
km/h Bft. km/h Grad Sektor
Mo, 06.02. 7:00 2 1 11 280° W
Mo, 06.02. 1:00 7 2 11 330° NW
So, 05.02. 19:00 4 1 14 320° NW
So, 05.02. 13:00 2 1 11 320° NW
So, 05.02. 7:00 4 1 18 230° SW
So, 05.02. 1:00 4 1 7 10° N
Sa, 04.02. 19:00 0 0 18 - -
Sa, 04.02. 13:00 7 2 14 330° NW
Ortszeit Stärke Spitze Richtung
km/h Bft. km/h Grad Sektor
Mo, 06.02. 10:30 7 2 11 350° N
Mo, 06.02. 10:20 7 2 - 350° N
Mo, 06.02. 10:10 4 1 - 350° N
Mo, 06.02. 10:00 7 2 11 360° N
Mo, 06.02. 9:50 7 2 - 360° N
Mo, 06.02. 9:40 7 2 - 350° N
Mo, 06.02. 9:30 4 1 11 30° NO
Mo, 06.02. 9:00 4 1 14 10° N
Mo, 06.02. 8:30 7 2 14 360° N
Mo, 06.02. 8:00 0 0 4 - -
Mo, 06.02. 7:30 4 1 4 30° NO
Ortszeit Untergrenze Bedeckung Gattung
total tief tief mittel hoch
Mo, 06.02. 7:00 1500 m 7/8 7/8 - - -
Mo, 06.02. 1:00 150 m 8/8 8/8 - - -
So, 05.02. 19:00 480 m 7/8 7/8 - - -
So, 05.02. 13:00 690 m 7/8 7/8 - - -
So, 05.02. 7:00 1500 m 8/8 8/8 - - -
So, 05.02. 1:00 10500 m 2/8 0/8 - - -
Sa, 04.02. 19:00 - 0/8 0/8 - - -
Sa, 04.02. 13:00 420 m 8/8 6/8 - - -
Ortszeit Bedeckungsgrad in Achtel und Wolkenuntergrenze
Mo, 06.02. 10:30 5(30m)
Mo, 06.02. 10:20 5(30m)
Mo, 06.02. 10:10 7
Mo, 06.02. 10:00 7(30m)
Mo, 06.02. 9:50 7(30m)
Mo, 06.02. 9:40 8
Mo, 06.02. 9:30 8(60m)
Mo, 06.02. 9:00 8(60m)
Mo, 06.02. 8:30 7(90m) 8(1500m)
Mo, 06.02. 8:00 4(60m) 8(1500m)
Mo, 06.02. 7:30 8(1500m)
Ortszeit Luftdruck NN (hPa) Tendenz (hPa in 3 Std.)
Mo, 06.02. 7:00 1038 0,0
Mo, 06.02. 1:00 1038 + 1,5
So, 05.02. 19:00 1036 + 0,6
So, 05.02. 13:00 1037 - 1,8
So, 05.02. 7:00 1039 - 0,1
So, 05.02. 1:00 1039 + 0,4
Sa, 04.02. 19:00 1038 + 0,9
Sa, 04.02. 13:00 1036 + 0,7
Ortszeit Luftdruck NN (hPa) Tendenz (hPa in 3 Std.)
Mo, 06.02. 10:30 1038 + 0,1
Mo, 06.02. 10:20 1038 keine Meldung
Mo, 06.02. 10:10 1038 keine Meldung
Mo, 06.02. 10:00 1039 + 0,3
Mo, 06.02. 9:50 1039 keine Meldung
Mo, 06.02. 9:40 1039 keine Meldung
Mo, 06.02. 9:30 1039 + 0,3
Mo, 06.02. 9:00 1039 + 0,2
Mo, 06.02. 8:30 1039 + 0,4
Mo, 06.02. 8:00 1039 + 0,1
Mo, 06.02. 7:30 1039 + 0,1
Ortszeit Schneehöhe (cm)
Mo, 06.02. 7:00 0
Mo, 06.02. 1:00 0
So, 05.02. 19:00 0
So, 05.02. 13:00 0
So, 05.02. 7:00 0
So, 05.02. 1:00 0
Sa, 04.02. 19:00 0
Sa, 04.02. 13:00 0
Ortszeit Schneehöhe (cm)
Mo, 06.02. 10:30 0
Mo, 06.02. 10:20 0
Mo, 06.02. 10:10 0
Mo, 06.02. 10:00 0
Mo, 06.02. 9:50 0
Mo, 06.02. 9:40 0
Mo, 06.02. 9:30 0
Mo, 06.02. 9:00 0
Mo, 06.02. 8:30 0
Mo, 06.02. 8:00 0
Mo, 06.02. 7:30 0
Link zu dieser Seite / Seite empfehlen

Das Wetter in ...